FW0527 Weather Reports


time (UTC)temp
C
wind
direction
speed
KPH
gust
KPH
rain 1hr
cm
rain 24hr
cm
rain mn
cm
humidity
%
barometer
mb
20260901094540 12 30 0.0 0.0 0.00 0.00 0.00 52 1012.2
20260901093038 12 30 0.0 0.0 0.00 0.00 0.00 53 1012.1
20260901091536 13 30 0.0 0.0 0.00 0.00 0.00 50 1012.2
20260901090033 13 30 0.0 0.0 0.00 0.00 0.00 49 1012.2
20260901084532 13 30 0.0 0.0 0.00 0.00 0.00 48 1012.2
20260901083029 13 30 0.0 0.0 0.00 0.00 0.00 47 1012.2
20260901081526 13 30 0.0 0.0 0.00 0.00 0.00 46 1012.2
20260901080025 13 30 0.0 0.0 0.00 0.00 0.00 46 1012.4
20260901074523 14 30 0.0 0.0 0.00 0.00 0.00 47 1012.3
20260901073019 14 30 0.0 0.0 0.00 0.00 0.00 51 1012.2
20260901071516 14 30 0.0 0.0 0.00 0.00 0.00 60 1012.4
20260901070015 17 11 0.0 0.0 0.00 0.00 0.00 54 1012.4
20260901064515 16 80 0.0 0.0 0.00 0.00 0.00 59 1012.2
20260901063019 16 78 0.0 0.0 0.00 0.00 0.00 62 1012.4
20260901061511 16 71 0.0 1.6 0.00 0.00 0.00 61 1012.4
20260901060030 16 70 0.0 0.0 0.00 0.00 0.00 62 1012.6
20260901054511 16 94 0.0 1.6 0.00 0.00 0.00 63 1012.5
20260901053009 15 319 0.0 0.0 0.00 0.00 0.00 63 1012.5
20260901051508 16 319 0.0 0.0 0.00 0.00 0.00 64 1012.4
20260901050008 16 318 0.0 0.0 0.00 0.00 0.00 63 1012.4
20260901044507 16 318 0.0 0.0 0.00 0.00 0.00 63 1012.3
20260901043006 16 318 0.0 0.0 0.00 0.00 0.00 61 1012.4
20260901041505 16 318 0.0 0.0 0.00 0.00 0.00 60 1012.2
20260901040005 17 318 0.0 0.0 0.00 0.00 0.00 58 1012.3
20260901034503 17 318 0.0 0.0 0.00 0.00 0.00 56 1012.3
20260901033001 18 318 0.0 0.0 0.00 0.00 0.00 54 1011.9
20260901031600 19 317 0.0 0.0 0.00 0.00 0.00 51 1011.7
20260901030107 20 318 0.0 0.0 0.00 0.00 0.00 50 1011.5
20260901024600 21 315 0.0 0.0 0.00 0.00 0.00 48 1011.3
20260901023102 21 315 0.0 0.0 0.00 0.00 0.00 47 1010.9
20260901021556 22 315 0.0 0.0 0.00 0.00 0.00 47 1011.0
20260901020057 22 315 0.0 0.0 0.00 0.00 0.00 46 1010.7
20260901014554 22 303 0.0 3.2 0.00 0.00 0.00 44 1010.6
20260901013059 23 295 0.0 8.0 0.00 0.00 0.00 43 1010.5
20260901011553 23 291 0.0 8.0 0.00 0.00 0.00 41 1010.6
20260901010107 24 291 0.0 17.7 0.00 0.00 0.00 40 1010.7
20260901004552 25 311 0.0 16.1 0.00 0.00 0.00 40 1010.6
20260901003052 25 267 0.0 12.9 0.00 0.00 0.00 42 1010.5
20260901001551 25 306 0.0 19.3 0.00 0.00 0.00 42 1010.7
20260901000051 26 294 0.0 19.3 0.00 0.00 0.00 42 1010.8
20260831234549 26 284 0.0 12.9 0.00 0.00 0.00 42 1010.8
20260831233048 26 306 4.8 19.3 0.00 0.00 0.00 41 1010.7
20260831231546 26 226 0.0 19.3 0.00 0.00 0.00 41 1010.6
20260831230058 27 307 0.0 17.7 0.00 0.00 0.00 40 1010.9
20260831224543 27 350 0.0 20.9 0.00 0.00 0.00 38 1010.9
20260831223041 28 272 0.0 16.1 0.00 0.00 0.00 36 1011.0
20260831221545 28 314 0.0 1.6 0.00 0.00 0.00 34 1011.1
20260831220038 29 300 0.0 17.7 0.00 0.00 0.00 33 1011.3
20260831214542 29 300 3.2 16.1 0.00 0.00 0.00 32 1011.1
20260831213039 30 300 0.0 19.3 0.00 0.00 0.00 32 1011.3
20260831211534 30 323 1.6 16.1 0.00 0.00 0.00 30 1011.5
20260831210031 31 303 0.0 11.3 0.00 0.00 0.00 29 1011.3
20260831204530 31 305 0.0 20.9 0.00 0.00 0.00 29 1011.4
20260831203027 31 337 0.0 16.1 0.00 0.00 0.00 28 1011.6
20260831201529 31 318 4.8 20.9 0.00 0.00 0.00 27 1011.7
20260831200024 31 319 0.0 19.3 0.00 0.00 0.00 27 1011.6
20260831194521 30 308 0.0 17.7 0.00 0.00 0.00 27 1011.7
20260831193031 30 321 6.4 25.7 0.00 0.00 0.00 28 1011.9
20260831191518 30 286 0.0 17.7 0.00 0.00 0.00 28 1012.1
20260831190017 30 294 4.8 24.1 0.00 0.00 0.00 28 1012.1
20260831184512 30 290 1.6 19.3 0.00 0.00 0.00 27 1012.3
20260831183009 29 286 0.0 14.5 0.00 0.00 0.00 27 1012.2
20260831181506 29 300 0.0 20.9 0.00 0.00 0.00 27 1012.1
20260831180002 28 286 0.0 11.3 0.00 0.00 0.00 28 1011.9
20260831174504 28 284 0.0 9.7 0.00 0.00 0.00 31 1012.1
20260831173100 28 290 1.6 22.5 0.00 0.00 0.00 28 1011.9
20260831171558 28 299 0.0 0.0 0.00 0.00 0.00 28 1011.7
20260831170055 27 301 0.0 9.7 0.00 0.00 0.00 24 1012.0
20260831164551 27 318 0.0 9.7 0.00 0.00 0.00 23 1012.0
20260831163046 26 306 0.0 0.0 0.00 0.00 0.00 24 1012.0
20260831161549 25 311 0.0 0.0 0.00 0.00 0.00 22 1011.9
20260831160038 23 307 0.0 0.0 0.00 0.00 0.00 19 1011.9
20260831154538 21 318 0.0 0.0 0.00 0.00 0.00 21 1011.9
20260831153028 18 198 0.0 0.0 0.00 0.00 0.00 25 1011.8
20260831151525 17 196 0.0 0.0 0.00 0.00 0.00 28 1011.6
20260831150024 16 196 0.0 0.0 0.00 0.00 0.00 32 1011.6
20260831144520 15 196 0.0 0.0 0.00 0.00 0.00 33 1011.4
20260831143018 14 196 0.0 0.0 0.00 0.00 0.00 34 1011.1
20260831141517 13 196 0.0 0.0 0.00 0.00 0.00 34 1010.8
20260831140016 13 196 0.0 0.0 0.00 0.00 0.00 34 1010.7
20260831134516 13 196 0.0 0.0 0.00 0.00 0.00 34 1010.4
20260831133027 13 196 0.0 0.0 0.00 0.00 0.00 36 1010.2
20260831131517 13 196 0.0 0.0 0.00 0.00 0.00 34 1010.2
20260831130013 13 196 0.0 0.0 0.00 0.00 0.00 34 1010.2
20260831124513 13 196 0.0 0.0 0.00 0.00 0.00 34 1009.9
20260831123015 13 196 0.0 0.0 0.00 0.00 0.00 34 1010.0
20260831121507 13 196 0.0 0.0 0.00 0.00 0.00 35 1009.9
20260831120008 13 196 0.0 0.0 0.00 0.00 0.00 34 1010.0
20260831114504 13 196 0.0 0.0 0.00 0.00 0.00 34 1010.0
20260831113002 13 196 0.0 0.0 0.00 0.00 0.00 34 1010.2
20260831111600 14 196 0.0 0.0 0.00 0.00 0.00 32 1010.1
20260831104610 14 196 0.0 0.0 0.00 0.00 0.00 33 1010.0
20260831103055 14 196 0.0 0.0 0.00 0.00 0.00 33 1010.1
20260831101553 14 196 0.0 0.0 0.00 0.00 0.00 34 1010.2
20260831100103 15 196 0.0 0.0 0.00 0.00 0.00 35 1010.2